| time (UTC) | temp F | wind direction | speed MPH | gust MPH | rain 1hr in | rain 24hr in | rain mn in | humidity % | barometer mb |
| 20260831162952 | 93 | 192 | 9.0 | 17.0 | 0.00 | 0.00 | 0.00 | 44 | 1015.4 |
| 20260831162451 | 93 | 209 | 9.0 | 17.0 | 0.00 | 0.00 | 0.00 | 45 | 1015.5 |
| 20260831161952 | 94 | 170 | 9.0 | 17.0 | 0.00 | 0.00 | 0.00 | 43 | 1015.4 |
| 20260831161452 | 94 | 196 | 10.0 | 17.0 | 0.00 | 0.00 | 0.00 | 44 | 1015.5 |
| 20260831160952 | 93 | 215 | 7.0 | 14.0 | 0.00 | 0.00 | 0.00 | 45 | 1015.3 |
| 20260831160452 | 93 | 197 | 9.0 | 14.0 | 0.00 | 0.00 | 0.00 | 44 | 1015.5 |
| 20260831155953 | 93 | 214 | 7.0 | 15.0 | 0.00 | 0.00 | 0.00 | 45 | 1015.4 |
| 20260831154952 | 92 | 231 | 9.0 | 14.0 | 0.00 | 0.00 | 0.00 | 44 | 1015.4 |
| 20260831154451 | 92 | 198 | 6.0 | 13.0 | 0.00 | 0.00 | 0.00 | 46 | 1015.4 |
| 20260831153952 | 92 | 223 | 7.0 | 13.0 | 0.00 | 0.00 | 0.00 | 47 | 1015.5 |
| 20260831153452 | 92 | 205 | 6.0 | 12.0 | 0.00 | 0.00 | 0.00 | 47 | 1015.3 |
| 20260831152952 | 91 | 222 | 7.0 | 12.0 | 0.00 | 0.00 | 0.00 | 48 | 1015.4 |
| 20260831152452 | 91 | 208 | 5.0 | 12.0 | 0.00 | 0.00 | 0.00 | 49 | 1015.3 |
| 20260831151952 | 91 | 210 | 6.0 | 12.0 | 0.00 | 0.00 | 0.00 | 51 | 1015.4 |
| 20260831150453 | 89 | 203 | 7.0 | 13.0 | 0.00 | 0.00 | 0.00 | 55 | 1015.3 |
| 20260831145952 | 89 | 209 | 7.0 | 13.0 | 0.00 | 0.00 | 0.00 | 55 | 1015.3 |
| 20260831145453 | 88 | 198 | 7.0 | 12.0 | 0.00 | 0.00 | 0.00 | 57 | 1015.3 |
| 20260831144953 | 88 | 163 | 7.0 | 13.0 | 0.00 | 0.00 | 0.00 | 56 | 1015.4 |
| 20260831142452 | 86 | 201 | 9.0 | 12.0 | 0.00 | 0.00 | 0.00 | 61 | 1015.4 |
| 20260831140452 | 85 | 202 | 7.0 | 12.0 | 0.00 | 0.00 | 0.00 | 66 | 1015.4 |
| 20260831135453 | 85 | 171 | 6.0 | 10.0 | 0.00 | 0.00 | 0.00 | 68 | 1015.1 |
| 20260831134953 | 84 | 148 | 6.0 | 10.0 | 0.00 | 0.00 | 0.00 | 69 | 1015.1 |
| 20260831134453 | 84 | 135 | 7.0 | 10.0 | 0.00 | 0.00 | 0.00 | 70 | 1015.0 |
| 20260831133952 | 83 | 150 | 6.0 | 10.0 | 0.00 | 0.00 | 0.00 | 70 | 1015.0 |
| 20260831133453 | 83 | 159 | 6.0 | 9.0 | 0.00 | 0.00 | 0.00 | 71 | 1014.9 |
| 20260831132953 | 83 | 164 | 5.0 | 8.0 | 0.00 | 0.00 | 0.00 | 72 | 1014.9 |
| 20260831132452 | 82 | 156 | 6.0 | 8.0 | 0.00 | 0.00 | 0.00 | 72 | 1014.7 |
| 20260831131953 | 82 | 152 | 5.0 | 8.0 | 0.00 | 0.00 | 0.00 | 73 | 1014.6 |
| 20260831130953 | 80 | 137 | 3.0 | 6.0 | 0.00 | 0.00 | 0.00 | 76 | 1014.5 |
| 20260831130453 | 80 | 147 | 2.0 | 5.0 | 0.00 | 0.00 | 0.00 | 76 | 1014.5 |
| 20260831125952 | 80 | 156 | 2.0 | 3.0 | 0.00 | 0.00 | 0.00 | 76 | 1014.4 |
| 20260831125453 | 79 | 158 | 1.0 | 5.0 | 0.00 | 0.00 | 0.00 | 76 | 1014.3 |
| 20260831124453 | 79 | 139 | 3.0 | 3.0 | 0.00 | 0.00 | 0.00 | 77 | 1014.1 |
| 20260831123454 | 78 | 145 | 2.0 | 3.0 | 0.00 | 0.00 | 0.00 | 77 | 1014.0 |
| 20260831122953 | 78 | 150 | 2.0 | 3.0 | 0.00 | 0.00 | 0.00 | 77 | 1014.0 |
| 20260831122453 | 78 | 134 | 2.0 | 3.0 | 0.00 | 0.00 | 0.00 | 77 | 1013.9 |
| 20260831121954 | 78 | 151 | 2.0 | 3.0 | 0.00 | 0.00 | 0.00 | 77 | 1013.8 |
| 20260831121453 | 78 | 142 | 2.0 | 5.0 | 0.00 | 0.00 | 0.00 | 77 | 1013.6 |
| 20260831120954 | 78 | 147 | 3.0 | 6.0 | 0.00 | 0.00 | 0.00 | 77 | 1013.7 |
| 20260831115953 | 78 | 170 | 3.0 | 3.0 | 0.00 | 0.00 | 0.00 | 75 | 1013.5 |
| 20260831114954 | 78 | 157 | 1.0 | 3.0 | 0.00 | 0.00 | 0.00 | 74 | 1013.4 |
| 20260831114455 | 78 | 164 | 2.0 | 3.0 | 0.00 | 0.00 | 0.00 | 74 | 1013.4 |
| 20260831113953 | 78 | 155 | 2.0 | 3.0 | 0.00 | 0.00 | 0.00 | 74 | 1013.3 |
| 20260831112954 | 78 | 165 | 3.0 | 3.0 | 0.00 | 0.00 | 0.00 | 73 | 1013.2 |
| 20260831112453 | 79 | 167 | 3.0 | 3.0 | 0.00 | 0.00 | 0.00 | 73 | 1013.3 |
| 20260831111454 | 79 | 184 | 2.0 | 3.0 | 0.00 | 0.00 | 0.00 | 73 | 1013.1 |
| 20260831110954 | 79 | 184 | 2.0 | 3.0 | 0.00 | 0.00 | 0.00 | 73 | 1013.1 |
| 20260831110454 | 79 | 184 | 2.0 | 3.0 | 0.00 | 0.00 | 0.00 | 72 | 1013.0 |
| 20260831105954 | 79 | 184 | 3.0 | 5.0 | 0.00 | 0.00 | 0.00 | 72 | 1013.1 |
| 20260831104454 | 79 | 184 | 3.0 | 6.0 | 0.00 | 0.00 | 0.00 | 72 | 1012.9 |
| 20260831103454 | 79 | 141 | 5.0 | 6.0 | 0.00 | 0.00 | 0.00 | 72 | 1012.9 |
| 20260831102955 | 79 | 155 | 4.0 | 6.0 | 0.00 | 0.00 | 0.00 | 71 | 1012.9 |
| 20260831102454 | 79 | 143 | 3.0 | 6.0 | 0.00 | 0.00 | 0.00 | 70 | 1013.0 |
| 20260831101954 | 79 | 154 | 2.0 | 3.0 | 0.00 | 0.00 | 0.00 | 70 | 1012.9 |
| 20260831100954 | 79 | 157 | 3.0 | 3.0 | 0.00 | 0.00 | 0.00 | 69 | 1012.9 |
| 20260831100454 | 80 | 167 | 3.0 | 3.0 | 0.00 | 0.00 | 0.00 | 68 | 1012.9 |
| 20260831095954 | 80 | 156 | 2.0 | 3.0 | 0.00 | 0.00 | 0.00 | 68 | 1012.7 |
| 20260831095454 | 79 | 155 | 2.0 | 3.0 | 0.00 | 0.00 | 0.00 | 68 | 1012.8 |
| 20260831094954 | 79 | 155 | 2.0 | 5.0 | 0.00 | 0.00 | 0.00 | 68 | 1012.7 |
| 20260831094454 | 80 | 165 | 3.0 | 5.0 | 0.00 | 0.00 | 0.00 | 67 | 1012.7 |
| 20260831093954 | 80 | 154 | 3.0 | 5.0 | 0.00 | 0.00 | 0.00 | 67 | 1012.8 |
| 20260831093454 | 80 | 145 | 2.0 | 5.0 | 0.00 | 0.00 | 0.00 | 67 | 1012.7 |
| 20260831092955 | 80 | 153 | 1.0 | 3.0 | 0.00 | 0.00 | 0.00 | 67 | 1012.7 |
| 20260831092454 | 80 | 153 | 2.0 | 5.0 | 0.00 | 0.00 | 0.00 | 66 | 1012.6 |
| 20260831091456 | 81 | 143 | 3.0 | 5.0 | 0.00 | 0.00 | 0.00 | 65 | 1012.5 |
| 20260831090955 | 81 | 122 | 3.0 | 5.0 | 0.00 | 0.00 | 0.00 | 64 | 1012.6 |
| 20260831090455 | 81 | 124 | 3.0 | 5.0 | 0.00 | 0.00 | 0.00 | 63 | 1012.5 |
| 20260831085455 | 82 | 145 | 3.0 | 5.0 | 0.00 | 0.00 | 0.00 | 63 | 1012.5 |
| 20260831084955 | 82 | 148 | 3.0 | 6.0 | 0.00 | 0.00 | 0.00 | 63 | 1012.6 |
| 20260831084455 | 82 | 163 | 4.0 | 6.0 | 0.00 | 0.00 | 0.00 | 63 | 1012.4 |
| 20260831083955 | 82 | 157 | 5.0 | 6.0 | 0.00 | 0.00 | 0.00 | 62 | 1012.5 |
| 20260831083454 | 82 | 162 | 5.0 | 6.0 | 0.00 | 0.00 | 0.00 | 62 | 1012.5 |
| 20260831082454 | 82 | 181 | 5.0 | 6.0 | 0.00 | 0.00 | 0.00 | 62 | 1012.5 |
| 20260831081954 | 82 | 175 | 5.0 | 6.0 | 0.00 | 0.00 | 0.00 | 62 | 1012.5 |
| 20260831081455 | 82 | 177 | 5.0 | 7.0 | 0.00 | 0.00 | 0.00 | 62 | 1012.5 |
| 20260831080455 | 81 | 179 | 5.0 | 7.0 | 0.00 | 0.00 | 0.00 | 63 | 1012.6 |
| 20260831075955 | 81 | 175 | 5.0 | 6.0 | 0.00 | 0.00 | 0.00 | 64 | 1012.4 |
| 20260831075456 | 81 | 178 | 4.0 | 7.0 | 0.00 | 0.00 | 0.00 | 65 | 1012.4 |
| 20260831074955 | 80 | 175 | 5.0 | 7.0 | 0.00 | 0.00 | 0.00 | 66 | 1012.3 |
| 20260831073956 | 80 | 177 | 3.0 | 3.0 | 0.00 | 0.00 | 0.00 | 69 | 1012.2 |
| 20260831073455 | 80 | 135 | 2.0 | 3.0 | 0.00 | 0.00 | 0.00 | 70 | 1012.2 |
| 20260831072955 | 80 | 135 | 2.0 | 3.0 | 0.00 | 0.00 | 0.00 | 71 | 1012.1 |
| 20260831072455 | 80 | 135 | 2.0 | 3.0 | 0.00 | 0.00 | 0.00 | 72 | 1012.2 |
| 20260831071956 | 80 | 107 | 2.0 | 3.0 | 0.00 | 0.00 | 0.00 | 72 | 1012.1 |
| 20260831070955 | 80 | 107 | 1.0 | 2.0 | 0.00 | 0.00 | 0.00 | 72 | 1012.3 |
| 20260831070456 | 80 | 107 | 1.0 | 1.0 | 0.00 | 0.00 | 0.00 | 71 | 1012.3 |
| 20260831065955 | 80 | 105 | 0.0 | 1.0 | 0.00 | 0.00 | 0.00 | 71 | 1012.4 |
| 20260831065456 | 80 | 161 | 0.0 | 2.0 | 0.00 | 0.00 | 0.00 | 71 | 1012.2 |
| 20260831064955 | 80 | 163 | 2.0 | 2.0 | 0.00 | 0.00 | 0.00 | 70 | 1012.4 |
| 20260831063955 | 81 | 160 | 0.0 | 1.0 | 0.00 | 0.00 | 0.00 | 69 | 1012.5 |
| 20260831063455 | 81 | 160 | 0.0 | 1.0 | 0.00 | 0.00 | 0.00 | 68 | 1012.4 |
| 20260831062956 | 81 | 160 | 0.0 | 2.0 | 0.00 | 0.00 | 0.00 | 67 | 1012.5 |
| 20260831062455 | 81 | 160 | 0.0 | 3.0 | 0.00 | 0.00 | 0.00 | 67 | 1012.4 |
| 20260831061955 | 81 | 160 | 2.0 | 3.0 | 0.00 | 0.00 | 0.00 | 66 | 1012.6 |
| 20260831061456 | 82 | 139 | 0.0 | 2.0 | 0.00 | 0.00 | 0.00 | 66 | 1012.5 |
| 20260831060955 | 82 | 150 | 0.0 | 2.0 | 0.00 | 0.00 | 0.00 | 65 | 1012.6 |
| 20260831060455 | 82 | 150 | 0.0 | 3.0 | 0.00 | 0.00 | 0.00 | 64 | 1012.5 |
| 20260831055455 | 82 | 148 | 2.0 | 5.0 | 0.00 | 0.00 | 0.00 | 63 | 1012.4 |
| 20260831054455 | 82 | 141 | 3.0 | 5.0 | 0.00 | 0.00 | 0.00 | 62 | 1012.4 |
| 20260831053956 | 82 | 146 | 3.0 | 5.0 | 0.00 | 0.00 | 0.00 | 63 | 1012.5 |
| 20260831053456 | 82 | 160 | 3.0 | 5.0 | 0.00 | 0.00 | 0.00 | 63 | 1012.4 |
| 20260831052956 | 82 | 164 | 1.0 | 3.0 | 0.00 | 0.00 | 0.00 | 62 | 1012.4 |
| 20260831052456 | 82 | 164 | 2.0 | 3.0 | 0.00 | 0.00 | 0.00 | 62 | 1012.4 |
| 20260831051956 | 82 | 150 | 2.0 | 3.0 | 0.00 | 0.00 | 0.00 | 62 | 1012.3 |
| 20260831051456 | 82 | 138 | 1.0 | 3.0 | 0.00 | 0.00 | 0.00 | 63 | 1012.3 |
| 20260831050956 | 82 | 105 | 0.0 | 2.0 | 0.00 | 0.00 | 0.00 | 62 | 1012.3 |
| 20260831050456 | 82 | 105 | 1.0 | 2.0 | 0.00 | 0.00 | 0.00 | 62 | 1012.2 |
| 20260831045956 | 82 | 105 | 1.0 | 2.0 | 0.00 | 0.00 | 0.00 | 63 | 1012.2 |
| 20260831045457 | 82 | 92 | 0.0 | 1.0 | 0.00 | 0.00 | 0.00 | 63 | 1012.2 |
| 20260831044956 | 82 | 92 | 0.0 | 1.0 | 0.00 | 0.00 | 0.00 | 62 | 1012.3 |
| 20260831044456 | 82 | 92 | 0.0 | 1.0 | 0.00 | 0.00 | 0.00 | 62 | 1012.2 |
| 20260831043956 | 82 | 92 | 0.0 | 1.0 | 0.00 | 0.00 | 0.00 | 63 | 1012.3 |
| 20260831043456 | 82 | 92 | 0.0 | 1.0 | 0.00 | 0.00 | 0.00 | 61 | 1012.3 |
| 20260831042956 | 83 | 92 | 0.0 | 1.0 | 0.00 | 0.00 | 0.00 | 61 | 1012.3 |
| 20260831041956 | 83 | 92 | 0.0 | 1.0 | 0.00 | 0.00 | 0.00 | 58 | 1012.2 |
| 20260831041456 | 84 | 92 | 0.0 | 1.0 | 0.00 | 0.00 | 0.00 | 59 | 1012.1 |
| 20260831040957 | 84 | 92 | 0.0 | 1.0 | 0.00 | 0.00 | 0.00 | 60 | 1012.3 |
| 20260831040456 | 83 | 90 | 0.0 | 1.0 | 0.00 | 0.00 | 0.00 | 59 | 1012.1 |
| 20260831035956 | 83 | 90 | 0.0 | 1.0 | 0.00 | 0.00 | 0.00 | 60 | 1012.2 |
| 20260831035457 | 83 | 90 | 0.0 | 1.0 | 0.00 | 0.00 | 0.00 | 60 | 1012.1 |
| 20260831034957 | 83 | 74 | 0.0 | 0.0 | 0.00 | 0.00 | 0.00 | 58 | 1012.2 |
| 20260831034456 | 84 | 74 | 0.0 | 1.0 | 0.00 | 0.00 | 0.00 | 58 | 1012.1 |
| 20260831033957 | 84 | 74 | 0.0 | 1.0 | 0.00 | 0.00 | 0.00 | 59 | 1012.1 |
| 20260831033457 | 84 | 74 | 0.0 | 1.0 | 0.00 | 0.00 | 0.00 | 60 | 1012.0 |
| 20260831032956 | 84 | 74 | 0.0 | 1.0 | 0.00 | 0.00 | 0.00 | 60 | 1012.1 |
| 20260831032456 | 84 | 74 | 0.0 | 1.0 | 0.00 | 0.00 | 0.00 | 60 | 1011.9 |
| 20260831031957 | 84 | 74 | 0.0 | 1.0 | 0.00 | 0.00 | 0.00 | 58 | 1012.0 |
| 20260831031456 | 84 | 74 | 0.0 | 1.0 | 0.00 | 0.00 | 0.00 | 58 | 1011.9 |
| 20260831030457 | 84 | 78 | 0.0 | 1.0 | 0.00 | 0.00 | 0.00 | 59 | 1011.7 |
| 20260831025958 | 84 | 78 | 0.0 | 1.0 | 0.00 | 0.00 | 0.00 | 58 | 1011.8 |
| 20260831025456 | 85 | 78 | 0.0 | 1.0 | 0.00 | 0.00 | 0.00 | 56 | 1011.6 |
| 20260831024957 | 85 | 78 | 0.0 | 1.0 | 0.00 | 0.00 | 0.00 | 55 | 1011.7 |
| 20260831023958 | 86 | 78 | 0.0 | 1.0 | 0.00 | 0.00 | 0.00 | 55 | 1011.6 |
| 20260831023457 | 87 | 78 | 0.0 | 1.0 | 0.00 | 0.00 | 0.00 | 53 | 1011.4 |
| 20260831022957 | 87 | 78 | 0.0 | 1.0 | 0.00 | 0.00 | 0.00 | 51 | 1011.5 |
| 20260831022456 | 88 | 78 | 0.0 | 1.0 | 0.00 | 0.00 | 0.00 | 51 | 1011.3 |
| 20260831021957 | 88 | 80 | 0.0 | 1.0 | 0.00 | 0.00 | 0.00 | 49 | 1011.4 |
| 20260831021457 | 88 | 86 | 0.0 | 1.0 | 0.00 | 0.00 | 0.00 | 48 | 1011.2 |
| 20260831015957 | 89 | 151 | 2.0 | 3.0 | 0.00 | 0.00 | 0.00 | 45 | 1011.0 |
| 20260831014958 | 91 | 97 | 0.0 | 1.0 | 0.00 | 0.00 | 0.00 | 46 | 1010.9 |
| 20260831014457 | 91 | 111 | 0.0 | 1.0 | 0.00 | 0.00 | 0.00 | 44 | 1010.8 |
| 20260831013458 | 91 | 113 | 0.0 | 2.0 | 0.00 | 0.00 | 0.00 | 43 | 1010.9 |
| 20260831012957 | 92 | 151 | 1.0 | 2.0 | 0.00 | 0.00 | 0.00 | 42 | 1010.8 |
| 20260831012457 | 92 | 151 | 1.0 | 3.0 | 0.00 | 0.00 | 0.00 | 42 | 1010.7 |
| 20260831011958 | 92 | 151 | 2.0 | 5.0 | 0.00 | 0.00 | 0.00 | 41 | 1010.7 |
| 20260831011457 | 93 | 159 | 2.0 | 5.0 | 0.00 | 0.00 | 0.00 | 41 | 1010.7 |
| 20260831010957 | 93 | 135 | 3.0 | 3.0 | 0.00 | 0.00 | 0.00 | 40 | 1010.6 |
| 20260831010457 | 93 | 152 | 2.0 | 5.0 | 0.00 | 0.00 | 0.00 | 40 | 1010.5 |
| 20260831005957 | 94 | 146 | 3.0 | 6.0 | 0.00 | 0.00 | 0.00 | 39 | 1010.5 |
| 20260831005458 | 95 | 140 | 4.0 | 6.0 | 0.00 | 0.00 | 0.00 | 38 | 1010.5 |
| 20260831004957 | 95 | 131 | 3.0 | 6.0 | 0.00 | 0.00 | 0.00 | 38 | 1010.5 |
| 20260831003957 | 95 | 129 | 4.0 | 7.0 | 0.00 | 0.00 | 0.00 | 38 | 1010.5 |
| 20260831003457 | 96 | 139 | 5.0 | 8.0 | 0.00 | 0.00 | 0.00 | 38 | 1010.5 |
| 20260831002958 | 96 | 156 | 5.0 | 8.0 | 0.00 | 0.00 | 0.00 | 37 | 1010.5 |
| 20260831002458 | 96 | 154 | 5.0 | 8.0 | 0.00 | 0.00 | 0.00 | 37 | 1010.6 |
| 20260831001958 | 96 | 159 | 5.0 | 10.0 | 0.00 | 0.00 | 0.00 | 37 | 1010.6 |
| 20260831001457 | 97 | 155 | 5.0 | 12.0 | 0.00 | 0.00 | 0.00 | 37 | 1010.5 |
| 20260831000958 | 97 | 160 | 6.0 | 12.0 | 0.00 | 0.00 | 0.00 | 36 | 1010.5 |
| 20260831000457 | 97 | 166 | 6.0 | 9.0 | 0.00 | 0.00 | 0.00 | 36 | 1010.5 |
| 20260830235958 | 97 | 147 | 6.0 | 9.0 | 0.00 | 0.00 | 0.00 | 36 | 1010.6 |
| 20260830235457 | 97 | 181 | 6.0 | 10.0 | 0.00 | 0.00 | 0.00 | 36 | 1010.6 |
| 20260830234957 | 97 | 156 | 6.0 | 14.0 | 0.00 | 0.00 | 0.00 | 36 | 1010.6 |
| 20260830233958 | 98 | 149 | 10.0 | 14.0 | 0.00 | 0.00 | 0.00 | 35 | 1010.6 |
| 20260830233457 | 98 | 156 | 9.0 | 14.0 | 0.00 | 0.00 | 0.00 | 34 | 1010.6 |
| 20260830232458 | 98 | 157 | 7.0 | 13.0 | 0.00 | 0.00 | 0.00 | 34 | 1010.7 |
| 20260830231958 | 98 | 164 | 7.0 | 13.0 | 0.00 | 0.00 | 0.00 | 34 | 1010.6 |
| 20260830231458 | 98 | 175 | 8.0 | 12.0 | 0.00 | 0.00 | 0.00 | 34 | 1010.6 |
| 20260830230959 | 98 | 189 | 8.0 | 13.0 | 0.00 | 0.00 | 0.00 | 34 | 1010.6 |
| 20260830230458 | 98 | 164 | 9.0 | 15.0 | 0.00 | 0.00 | 0.00 | 34 | 1010.8 |
| 20260830225958 | 99 | 162 | 9.0 | 15.0 | 0.00 | 0.00 | 0.00 | 34 | 1010.8 |
| 20260830225458 | 99 | 170 | 10.0 | 14.0 | 0.00 | 0.00 | 0.00 | 33 | 1010.8 |
| 20260830224958 | 99 | 160 | 9.0 | 18.0 | 0.00 | 0.00 | 0.00 | 33 | 1010.9 |
| 20260830224458 | 99 | 144 | 11.0 | 18.0 | 0.00 | 0.00 | 0.00 | 33 | 1010.9 |
| 20260830223958 | 99 | 176 | 10.0 | 16.0 | 0.00 | 0.00 | 0.00 | 32 | 1010.9 |
| 20260830223458 | 99 | 171 | 10.0 | 16.0 | 0.00 | 0.00 | 0.00 | 33 | 1010.8 |
| 20260830222959 | 99 | 101 | 7.0 | 20.0 | 0.00 | 0.00 | 0.00 | 34 | 1010.8 |
| 20260830222458 | 99 | 157 | 10.0 | 20.0 | 0.00 | 0.00 | 0.00 | 34 | 1010.8 |
| 20260830221458 | 99 | 176 | 9.0 | 17.0 | 0.00 | 0.00 | 0.00 | 34 | 1010.9 |
| 20260830220958 | 100 | 157 | 10.0 | 17.0 | 0.00 | 0.00 | 0.00 | 34 | 1010.8 |
| 20260830215958 | 99 | 158 | 9.0 | 16.0 | 0.00 | 0.00 | 0.00 | 35 | 1010.8 |
| 20260830215459 | 99 | 175 | 11.0 | 18.0 | 0.00 | 0.00 | 0.00 | 35 | 1010.9 |
| 20260830213959 | 100 | 148 | 10.0 | 16.0 | 0.00 | 0.00 | 0.00 | 35 | 1011.0 |
| 20260830212958 | 99 | 156 | 12.0 | 17.0 | 0.00 | 0.00 | 0.00 | 36 | 1011.1 |
| 20260830212459 | 99 | 152 | 10.0 | 21.0 | 0.00 | 0.00 | 0.00 | 36 | 1011.2 |
| 20260830211959 | 99 | 188 | 14.0 | 21.0 | 0.00 | 0.00 | 0.00 | 35 | 1011.2 |
| 20260830211458 | 100 | 191 | 7.0 | 20.0 | 0.00 | 0.00 | 0.00 | 35 | 1011.2 |
| 20260830210459 | 99 | 150 | 11.0 | 18.0 | 0.00 | 0.00 | 0.00 | 33 | 1011.3 |
| 20260830205458 | 99 | 131 | 10.0 | 21.0 | 0.00 | 0.00 | 0.00 | 35 | 1011.4 |
| 20260830204959 | 99 | 172 | 11.0 | 21.0 | 0.00 | 0.00 | 0.00 | 34 | 1011.5 |
| 20260830204458 | 99 | 136 | 6.0 | 18.0 | 0.00 | 0.00 | 0.00 | 35 | 1011.5 |
| 20260830203959 | 99 | 161 | 11.0 | 18.0 | 0.00 | 0.00 | 0.00 | 35 | 1011.6 |
| 20260830203459 | 99 | 172 | 9.0 | 17.0 | 0.00 | 0.00 | 0.00 | 36 | 1011.6 |
| 20260830203000 | 99 | 153 | 10.0 | 21.0 | 0.00 | 0.00 | 0.00 | 35 | 1011.7 |
| 20260830202459 | 99 | 173 | 12.0 | 21.0 | 0.00 | 0.00 | 0.00 | 35 | 1011.8 |
| 20260830201459 | 99 | 141 | 10.0 | 20.0 | 0.00 | 0.00 | 0.00 | 36 | 1011.9 |
| 20260830195959 | 99 | 149 | 10.0 | 17.0 | 0.00 | 0.00 | 0.00 | 36 | 1012.2 |
| 20260830195459 | 99 | 159 | 9.0 | 17.0 | 0.00 | 0.00 | 0.00 | 37 | 1012.3 |
| 20260830194959 | 99 | 177 | 9.0 | 18.0 | 0.00 | 0.00 | 0.00 | 37 | 1012.3 |
| 20260830194459 | 99 | 117 | 10.0 | 22.0 | 0.00 | 0.00 | 0.00 | 37 | 1012.2 |
| 20260830193959 | 98 | 121 | 9.0 | 22.0 | 0.00 | 0.00 | 0.00 | 38 | 1012.3 |
| 20260830193459 | 98 | 193 | 15.0 | 23.0 | 0.00 | 0.00 | 0.00 | 38 | 1012.3 |
| 20260830192959 | 98 | 162 | 12.0 | 23.0 | 0.00 | 0.00 | 0.00 | 39 | 1012.4 |
| 20260830192459 | 99 | 148 | 12.0 | 22.0 | 0.00 | 0.00 | 0.00 | 39 | 1012.4 |
| 20260830192000 | 98 | 116 | 9.0 | 20.0 | 0.00 | 0.00 | 0.00 | 39 | 1012.6 |
| 20260830191459 | 98 | 149 | 10.0 | 23.0 | 0.00 | 0.00 | 0.00 | 39 | 1012.6 |
| 20260830190959 | 99 | 186 | 16.0 | 23.0 | 0.00 | 0.00 | 0.00 | 39 | 1012.5 |
| 20260830190459 | 98 | 218 | 6.0 | 20.0 | 0.00 | 0.00 | 0.00 | 39 | 1012.6 |
| 20260830190000 | 97 | 193 | 8.0 | 21.0 | 0.00 | 0.00 | 0.00 | 40 | 1012.6 |
| 20260830185501 | 97 | 179 | 13.0 | 21.0 | 0.00 | 0.00 | 0.00 | 40 | 1012.8 |
| 20260830185000 | 97 | 180 | 13.0 | 22.0 | 0.00 | 0.00 | 0.00 | 41 | 1012.7 |
| 20260830184459 | 97 | 167 | 13.0 | 22.0 | 0.00 | 0.00 | 0.00 | 41 | 1012.9 |
| 20260830184000 | 97 | 161 | 8.0 | 20.0 | 0.00 | 0.00 | 0.00 | 40 | 1013.0 |
| 20260830183500 | 97 | 231 | 12.0 | 25.0 | 0.00 | 0.00 | 0.00 | 40 | 1013.1 |
| 20260830182459 | 97 | 141 | 12.0 | 26.0 | 0.00 | 0.00 | 0.00 | 41 | 1013.2 |
| 20260830182000 | 98 | 188 | 16.0 | 26.0 | 0.00 | 0.00 | 0.00 | 40 | 1013.2 |
| 20260830181000 | 97 | 159 | 13.0 | 21.0 | 0.00 | 0.00 | 0.00 | 42 | 1013.4 |
| 20260830180500 | 97 | 190 | 10.0 | 21.0 | 0.00 | 0.00 | 0.00 | 42 | 1013.4 |
| 20260830180000 | 97 | 165 | 12.0 | 20.0 | 0.00 | 0.00 | 0.00 | 44 | 1013.5 |
| 20260830175459 | 95 | 177 | 9.0 | 20.0 | 0.00 | 0.00 | 0.00 | 44 | 1013.6 |
| 20260830175000 | 95 | 224 | 7.0 | 20.0 | 0.00 | 0.00 | 0.00 | 44 | 1013.8 |
| 20260830174500 | 95 | 176 | 11.0 | 20.0 | 0.00 | 0.00 | 0.00 | 45 | 1013.5 |
| 20260830174000 | 96 | 160 | 9.0 | 17.0 | 0.00 | 0.00 | 0.00 | 45 | 1013.9 |
| 20260830173501 | 96 | 189 | 10.0 | 17.0 | 0.00 | 0.00 | 0.00 | 43 | 1013.9 |
| 20260830173000 | 96 | 200 | 13.0 | 21.0 | 0.00 | 0.00 | 0.00 | 43 | 1014.0 |
| 20260830172459 | 96 | 183 | 9.0 | 21.0 | 0.00 | 0.00 | 0.00 | 44 | 1014.0 |
| 20260830172000 | 96 | 190 | 10.0 | 20.0 | 0.00 | 0.00 | 0.00 | 44 | 1014.1 |
| 20260830171500 | 96 | 179 | 13.0 | 20.0 | 0.00 | 0.00 | 0.00 | 45 | 1014.1 |
| 20260830171000 | 96 | 180 | 10.0 | 20.0 | 0.00 | 0.00 | 0.00 | 45 | 1014.2 |
| 20260830170500 | 96 | 184 | 11.0 | 18.0 | 0.00 | 0.00 | 0.00 | 45 | 1014.2 |
| 20260830165500 | 95 | 194 | 10.0 | 18.0 | 0.00 | 0.00 | 0.00 | 46 | 1014.4 |
| 20260830165000 | 96 | 231 | 10.0 | 18.0 | 0.00 | 0.00 | 0.00 | 46 | 1014.4 |
| 20260830164500 | 95 | 210 | 10.0 | 21.0 | 0.00 | 0.00 | 0.00 | 46 | 1014.4 |
| 20260830164000 | 95 | 216 | 10.0 | 21.0 | 0.00 | 0.00 | 0.00 | 47 | 1014.5 |
| 20260830163501 | 95 | 208 | 10.0 | 21.0 | 0.00 | 0.00 | 0.00 | 48 | 1014.5 |